| time (UTC) | temp F | wind direction | speed MPH | gust MPH | rain 1hr in | rain 24hr in | rain mn in | humidity % | barometer mb |
| 20260506165000 | 79 | 228 | 4.0 | 9.0 | 0.00 | 0.00 | 0.00 | 62 | 1020.0 |
| 20260506164456 | 79 | 322 | 4.0 | 9.0 | 0.00 | 0.00 | 0.00 | 64 | 1019.8 |
| 20260506163954 | 79 | 203 | 6.0 | 9.0 | 0.00 | 0.00 | 0.00 | 63 | 1020.2 |
| 20260506163449 | 78 | 264 | 3.0 | 11.0 | 0.00 | 0.00 | 0.00 | 63 | 1020.4 |
| 20260506162944 | 78 | 268 | 7.0 | 8.0 | 0.00 | 0.00 | 0.00 | 63 | 1020.4 |
| 20260506162442 | 78 | 200 | 5.0 | 9.0 | 0.00 | 0.00 | 0.00 | 66 | 1020.4 |
| 20260506161939 | 77 | 227 | 3.0 | 9.0 | 0.00 | 0.00 | 0.00 | 68 | 1020.5 |
| 20260506161437 | 77 | 212 | 6.0 | 8.0 | 0.00 | 0.00 | 0.00 | 68 | 1020.4 |
| 20260506160935 | 76 | 221 | 2.0 | 5.0 | 0.00 | 0.00 | 0.00 | 70 | 1020.5 |
| 20260506160432 | 76 | 262 | 8.0 | 12.0 | 0.00 | 0.00 | 0.00 | 68 | 1020.4 |
| 20260506155929 | 76 | 251 | 3.0 | 8.0 | 0.00 | 0.00 | 0.00 | 69 | 1020.4 |
| 20260506155426 | 76 | 275 | 4.0 | 11.0 | 0.00 | 0.00 | 0.00 | 70 | 1020.5 |
| 20260506153548 | 75 | 226 | 6.0 | 9.0 | 0.00 | 0.00 | 0.00 | 70 | 1020.4 |
| 20260506153045 | 75 | 242 | 7.0 | 9.0 | 0.00 | 0.00 | 0.00 | 71 | 1020.3 |
| 20260506152542 | 74 | 255 | 7.0 | 14.0 | 0.00 | 0.00 | 0.00 | 72 | 1020.3 |
| 20260506152041 | 74 | 279 | 3.0 | 12.0 | 0.00 | 0.00 | 0.00 | 71 | 1020.2 |
| 20260506151539 | 75 | 231 | 5.0 | 14.0 | 0.00 | 0.00 | 0.00 | 71 | 1020.2 |
| 20260506151035 | 75 | 256 | 4.0 | 12.0 | 0.00 | 0.00 | 0.00 | 71 | 1019.9 |
| 20260506150531 | 75 | 273 | 4.0 | 11.0 | 0.00 | 0.00 | 0.00 | 71 | 1019.8 |
| 20260506150029 | 76 | 196 | 5.0 | 13.0 | 0.00 | 0.00 | 0.00 | 71 | 1019.6 |
| 20260506145525 | 74 | 267 | 4.0 | 9.0 | 0.00 | 0.00 | 0.00 | 73 | 1019.8 |
| 20260506145023 | 75 | 245 | 6.0 | 9.0 | 0.00 | 0.00 | 0.00 | 72 | 1019.7 |
| 20260506144519 | 74 | 252 | 5.0 | 12.0 | 0.00 | 0.00 | 0.00 | 74 | 1019.3 |
| 20260506144017 | 74 | 244 | 5.0 | 8.0 | 0.00 | 0.00 | 0.00 | 73 | 1019.7 |
| 20260506143514 | 74 | 225 | 8.0 | 11.0 | 0.00 | 0.00 | 0.00 | 74 | 1019.8 |
| 20260506143013 | 74 | 233 | 3.0 | 8.0 | 0.00 | 0.00 | 0.00 | 75 | 1019.7 |
| 20260506142510 | 74 | 236 | 4.0 | 5.0 | 0.00 | 0.00 | 0.00 | 76 | 1019.9 |
| 20260506142008 | 73 | 165 | 4.0 | 4.0 | 0.00 | 0.00 | 0.00 | 77 | 1019.9 |
| 20260506141505 | 72 | 225 | 6.0 | 9.0 | 0.00 | 0.00 | 0.00 | 77 | 1019.7 |
| 20260506141004 | 72 | 180 | 0.0 | 4.0 | 0.00 | 0.00 | 0.00 | 78 | 1019.8 |
| 20260506140501 | 71 | 161 | 2.0 | 4.0 | 0.00 | 0.00 | 0.00 | 79 | 1019.8 |
| 20260506135957 | 71 | 191 | 2.0 | 4.0 | 0.00 | 0.00 | 0.00 | 79 | 1019.9 |
| 20260506135455 | 70 | 246 | 1.0 | 5.0 | 0.00 | 0.00 | 0.00 | 79 | 1020.0 |
| 20260506134951 | 70 | 209 | 3.0 | 4.0 | 0.00 | 0.00 | 0.00 | 79 | 1020.0 |
| 20260506134446 | 70 | 286 | 0.0 | 5.0 | 0.00 | 0.00 | 0.00 | 80 | 1020.1 |
| 20260506133943 | 70 | 157 | 0.0 | 3.0 | 0.00 | 0.00 | 0.00 | 81 | 1019.9 |
| 20260506133441 | 69 | 162 | 3.0 | 3.0 | 0.00 | 0.00 | 0.00 | 82 | 1019.8 |
| 20260506132937 | 68 | 228 | 2.0 | 4.0 | 0.00 | 0.00 | 0.00 | 82 | 1019.8 |
| 20260506132434 | 69 | 82 | 0.0 | 1.0 | 0.00 | 0.00 | 0.00 | 82 | 1019.7 |
| 20260506131932 | 68 | 205 | 0.0 | 3.0 | 0.00 | 0.00 | 0.00 | 82 | 1019.5 |
| 20260506131428 | 68 | 234 | 4.0 | 4.0 | 0.00 | 0.00 | 0.00 | 82 | 1019.8 |
| 20260506130925 | 68 | 168 | 0.0 | 3.0 | 0.00 | 0.00 | 0.00 | 82 | 1019.7 |
| 20260506130421 | 67 | 160 | 3.0 | 5.0 | 0.00 | 0.00 | 0.00 | 82 | 1019.7 |
| 20260506125920 | 67 | 159 | 2.0 | 3.0 | 0.00 | 0.00 | 0.00 | 82 | 1019.5 |
| 20260506125418 | 67 | 201 | 0.0 | 3.0 | 0.00 | 0.00 | 0.00 | 83 | 1019.7 |
| 20260506124916 | 67 | 195 | 0.0 | 3.0 | 0.00 | 0.00 | 0.00 | 84 | 1019.3 |
| 20260506124413 | 66 | 209 | 2.0 | 3.0 | 0.00 | 0.00 | 0.00 | 84 | 1019.7 |
| 20260506123911 | 66 | 144 | 0.0 | 3.0 | 0.00 | 0.00 | 0.00 | 85 | 1019.5 |
| 20260506123409 | 65 | 188 | 3.0 | 5.0 | 0.00 | 0.00 | 0.00 | 85 | 1019.5 |
| 20260506122906 | 65 | 185 | 0.0 | 3.0 | 0.00 | 0.00 | 0.00 | 85 | 1019.5 |
| 20260506122402 | 65 | 196 | 0.0 | 3.0 | 0.00 | 0.00 | 0.00 | 86 | 1019.4 |
| 20260506121901 | 64 | 262 | 1.0 | 3.0 | 0.00 | 0.00 | 0.00 | 86 | 1019.5 |
| 20260506121357 | 64 | 187 | 2.0 | 3.0 | 0.00 | 0.00 | 0.00 | 86 | 1019.5 |
| 20260506120854 | 64 | 183 | 2.0 | 3.0 | 0.00 | 0.00 | 0.00 | 86 | 1019.4 |
| 20260506120352 | 64 | 199 | 2.0 | 4.0 | 0.00 | 0.00 | 0.00 | 85 | 1019.5 |
| 20260506115849 | 64 | 127 | 0.0 | 2.0 | 0.00 | 0.00 | 0.00 | 86 | 1019.2 |
| 20260506115347 | 64 | 176 | 2.0 | 5.0 | 0.00 | 0.00 | 0.00 | 85 | 1019.3 |
| 20260506114845 | 64 | 202 | 0.0 | 6.0 | 0.00 | 0.00 | 0.00 | 85 | 1019.4 |
| 20260506114342 | 64 | 186 | 0.0 | 3.0 | 0.00 | 0.00 | 0.00 | 86 | 1019.3 |
| 20260506113841 | 64 | 261 | 0.0 | 3.0 | 0.00 | 0.00 | 0.00 | 86 | 1019.2 |
| 20260506113338 | 63 | 151 | 1.0 | 7.0 | 0.00 | 0.00 | 0.00 | 87 | 1019.0 |
| 20260506112835 | 63 | 210 | 2.0 | 5.0 | 0.00 | 0.00 | 0.00 | 87 | 1018.8 |
| 20260506112332 | 62 | 180 | 0.0 | 4.0 | 0.00 | 0.00 | 0.00 | 88 | 1018.7 |
| 20260506111829 | 62 | 200 | 4.0 | 5.0 | 0.00 | 0.00 | 0.00 | 88 | 1018.5 |
| 20260506111328 | 62 | 243 | 1.0 | 4.0 | 0.00 | 0.00 | 0.00 | 88 | 1018.7 |
| 20260506110825 | 62 | 225 | 2.0 | 5.0 | 0.00 | 0.00 | 0.00 | 88 | 1018.5 |
| 20260506110321 | 62 | 276 | 1.0 | 3.0 | 0.00 | 0.00 | 0.00 | 88 | 1018.5 |
| 20260506105819 | 62 | 206 | 2.0 | 9.0 | 0.00 | 0.00 | 0.00 | 88 | 1018.4 |
| 20260506105315 | 62 | 216 | 3.0 | 5.0 | 0.00 | 0.00 | 0.00 | 88 | 1018.1 |
| 20260506104812 | 62 | 219 | 2.0 | 6.0 | 0.00 | 0.00 | 0.00 | 88 | 1018.0 |
| 20260506104310 | 62 | 216 | 3.0 | 7.0 | 0.00 | 0.00 | 0.00 | 87 | 1018.2 |
| 20260506103808 | 62 | 212 | 2.0 | 6.0 | 0.00 | 0.00 | 0.00 | 88 | 1017.9 |
| 20260506103305 | 62 | 206 | 1.0 | 3.0 | 0.00 | 0.00 | 0.00 | 87 | 1018.0 |
| 20260506102802 | 62 | 278 | 0.0 | 5.0 | 0.00 | 0.00 | 0.00 | 87 | 1017.9 |
| 20260506102300 | 62 | 111 | 1.0 | 5.0 | 0.00 | 0.00 | 0.00 | 87 | 1017.8 |
| 20260506101757 | 62 | 243 | 0.0 | 5.0 | 0.00 | 0.00 | 0.00 | 87 | 1018.1 |
| 20260506101253 | 62 | 203 | 2.0 | 3.0 | 0.00 | 0.00 | 0.00 | 87 | 1017.8 |
| 20260506100751 | 62 | 175 | 2.0 | 5.0 | 0.00 | 0.00 | 0.00 | 87 | 1018.1 |
| 20260506100249 | 62 | 203 | 3.0 | 4.0 | 0.00 | 0.00 | 0.00 | 87 | 1018.0 |
| 20260506095747 | 62 | 232 | 2.0 | 4.0 | 0.00 | 0.00 | 0.00 | 87 | 1017.9 |
| 20260506095244 | 62 | 188 | 2.0 | 4.0 | 0.00 | 0.00 | 0.00 | 87 | 1018.1 |
| 20260506094740 | 62 | 180 | 0.0 | 5.0 | 0.00 | 0.00 | 0.00 | 87 | 1018.0 |
| 20260506094239 | 62 | 233 | 2.0 | 3.0 | 0.00 | 0.00 | 0.00 | 86 | 1017.7 |
| 20260506093737 | 62 | 191 | 3.0 | 4.0 | 0.00 | 0.00 | 0.00 | 86 | 1018.1 |
| 20260506093234 | 62 | 180 | 1.0 | 3.0 | 0.00 | 0.00 | 0.00 | 86 | 1018.2 |
| 20260506092732 | 63 | 203 | 4.0 | 5.0 | 0.00 | 0.00 | 0.00 | 86 | 1018.4 |
| 20260506092230 | 63 | 192 | 3.0 | 5.0 | 0.00 | 0.00 | 0.00 | 85 | 1018.3 |
| 20260506091726 | 63 | 203 | 2.0 | 5.0 | 0.00 | 0.00 | 0.00 | 85 | 1018.3 |
| 20260506091224 | 63 | 218 | 5.0 | 7.0 | 0.00 | 0.00 | 0.00 | 85 | 1018.3 |
| 20260506090722 | 63 | 12 | 1.0 | 10.0 | 0.00 | 0.00 | 0.00 | 84 | 1018.5 |
| 20260506090218 | 63 | 243 | 0.0 | 6.0 | 0.00 | 0.00 | 0.00 | 84 | 1018.7 |
| 20260506085715 | 63 | 208 | 2.0 | 7.0 | 0.00 | 0.00 | 0.00 | 84 | 1018.4 |
| 20260506085211 | 63 | 213 | 3.0 | 7.0 | 0.00 | 0.00 | 0.00 | 84 | 1018.6 |
| 20260506084708 | 63 | 255 | 0.0 | 6.0 | 0.00 | 0.00 | 0.00 | 84 | 1018.5 |
| 20260506084204 | 63 | 189 | 2.0 | 6.0 | 0.00 | 0.00 | 0.00 | 84 | 1018.5 |
| 20260506083701 | 63 | 181 | 7.0 | 7.0 | 0.00 | 0.00 | 0.00 | 84 | 1018.7 |
| 20260506083159 | 63 | 207 | 5.0 | 5.0 | 0.00 | 0.00 | 0.00 | 84 | 1018.7 |
| 20260506082657 | 63 | 248 | 2.0 | 4.0 | 0.00 | 0.00 | 0.00 | 83 | 1018.8 |
| 20260506082156 | 63 | 221 | 2.0 | 6.0 | 0.00 | 0.00 | 0.00 | 83 | 1018.5 |
| 20260506081655 | 63 | 180 | 3.0 | 4.0 | 0.00 | 0.00 | 0.00 | 84 | 1018.5 |
| 20260506081152 | 63 | 157 | 0.0 | 4.0 | 0.00 | 0.00 | 0.00 | 84 | 1018.6 |
| 20260506080650 | 63 | 227 | 3.0 | 5.0 | 0.00 | 0.00 | 0.00 | 84 | 1018.7 |
| 20260506080146 | 63 | 180 | 0.0 | 4.0 | 0.00 | 0.00 | 0.00 | 83 | 1018.5 |
| 20260506073130 | 63 | 161 | 4.0 | 7.0 | 0.00 | 0.00 | 0.00 | 83 | 1018.8 |
| 20260506072627 | 63 | 106 | 0.0 | 3.0 | 0.00 | 0.00 | 0.00 | 83 | 1018.6 |
| 20260506072125 | 63 | 191 | 0.0 | 4.0 | 0.00 | 0.00 | 0.00 | 83 | 1018.7 |
| 20260506071622 | 64 | 185 | 0.0 | 3.0 | 0.00 | 0.00 | 0.00 | 82 | 1018.9 |
| 20260506071120 | 64 | 173 | 0.0 | 4.0 | 0.00 | 0.00 | 0.00 | 82 | 1018.8 |
| 20260506070616 | 64 | 112 | 2.0 | 4.0 | 0.00 | 0.00 | 0.00 | 82 | 1018.8 |
| 20260506070114 | 64 | 147 | 0.0 | 4.0 | 0.00 | 0.00 | 0.00 | 82 | 1018.7 |
| 20260506062050 | 64 | 147 | 0.0 | 5.0 | 0.00 | 0.00 | 0.00 | 81 | 1018.4 |
| 20260506061546 | 64 | 162 | 4.0 | 4.0 | 0.00 | 0.00 | 0.00 | 81 | 1018.8 |
| 20260506061044 | 64 | 82 | 1.0 | 3.0 | 0.00 | 0.00 | 0.00 | 80 | 1018.8 |
| 20260506060543 | 65 | 194 | 3.0 | 5.0 | 0.00 | 0.00 | 0.00 | 80 | 1018.8 |
| 20260506051011 | 66 | 198 | 3.0 | 6.0 | 0.00 | 0.00 | 0.00 | 76 | 1019.5 |
| 20260506050509 | 66 | 132 | 0.0 | 7.0 | 0.00 | 0.00 | 0.00 | 76 | 1019.3 |
| 20260506044959 | 67 | 196 | 2.0 | 6.0 | 0.00 | 0.00 | 0.00 | 75 | 1019.1 |
| 20260506044458 | 67 | 175 | 0.0 | 4.0 | 0.00 | 0.00 | 0.00 | 75 | 1019.4 |
| 20260506043954 | 67 | 158 | 4.0 | 9.0 | 0.00 | 0.00 | 0.00 | 74 | 1019.4 |
| 20260506043451 | 67 | 191 | 0.0 | 10.0 | 0.00 | 0.00 | 0.00 | 74 | 1019.1 |
| 20260506042949 | 67 | 188 | 3.0 | 8.0 | 0.00 | 0.00 | 0.00 | 74 | 1019.3 |
| 20260506042448 | 67 | 190 | 4.0 | 7.0 | 0.00 | 0.00 | 0.00 | 74 | 1019.4 |
| 20260506041946 | 68 | 229 | 4.0 | 9.0 | 0.00 | 0.00 | 0.00 | 73 | 1019.3 |
| 20260506041444 | 67 | 180 | 3.0 | 9.0 | 0.00 | 0.00 | 0.00 | 73 | 1019.3 |
| 20260506040941 | 68 | 209 | 1.0 | 8.0 | 0.00 | 0.00 | 0.00 | 73 | 1019.1 |
| 20260506040438 | 68 | 209 | 5.0 | 7.0 | 0.00 | 0.00 | 0.00 | 73 | 1019.5 |
| 20260506035934 | 68 | 7 | 2.0 | 4.0 | 0.00 | 0.00 | 0.00 | 73 | 1019.4 |
| 20260506035432 | 68 | 185 | 3.0 | 6.0 | 0.00 | 0.00 | 0.00 | 73 | 1019.0 |
| 20260506034928 | 68 | 215 | 1.0 | 7.0 | 0.00 | 0.00 | 0.00 | 73 | 1019.0 |
| 20260506034425 | 68 | 90 | 2.0 | 7.0 | 0.00 | 0.00 | 0.00 | 72 | 1019.1 |
| 20260506033922 | 69 | 197 | 4.0 | 5.0 | 0.00 | 0.00 | 0.00 | 72 | 1019.2 |
| 20260506033420 | 69 | 228 | 2.0 | 7.0 | 0.00 | 0.00 | 0.00 | 72 | 1019.2 |
| 20260506032916 | 69 | 154 | 1.0 | 5.0 | 0.00 | 0.00 | 0.00 | 72 | 1019.2 |
| 20260506032414 | 69 | 212 | 3.0 | 5.0 | 0.00 | 0.00 | 0.00 | 71 | 1019.3 |
| 20260506031910 | 69 | 132 | 2.0 | 8.0 | 0.00 | 0.00 | 0.00 | 71 | 1019.3 |
| 20260506031408 | 69 | 135 | 2.0 | 7.0 | 0.00 | 0.00 | 0.00 | 71 | 1019.2 |
| 20260506030905 | 69 | 166 | 0.0 | 6.0 | 0.00 | 0.00 | 0.00 | 71 | 1019.4 |
| 20260506030403 | 69 | 156 | 2.0 | 7.0 | 0.00 | 0.00 | 0.00 | 70 | 1019.1 |
| 20260506025859 | 70 | 203 | 4.0 | 9.0 | 0.00 | 0.00 | 0.00 | 69 | 1018.9 |
| 20260506025356 | 70 | 199 | 0.0 | 7.0 | 0.00 | 0.00 | 0.00 | 69 | 1018.7 |
| 20260506024853 | 70 | 120 | 3.0 | 8.0 | 0.00 | 0.00 | 0.00 | 68 | 1019.0 |
| 20260506024350 | 70 | 171 | 3.0 | 7.0 | 0.00 | 0.00 | 0.00 | 68 | 1019.0 |
| 20260506023846 | 71 | 160 | 4.0 | 6.0 | 0.00 | 0.00 | 0.00 | 67 | 1018.8 |
| 20260506023343 | 71 | 222 | 3.0 | 5.0 | 0.00 | 0.00 | 0.00 | 67 | 1018.8 |
| 20260506022840 | 71 | 133 | 3.0 | 10.0 | 0.00 | 0.00 | 0.00 | 66 | 1018.8 |
| 20260506022337 | 71 | 130 | 3.0 | 9.0 | 0.00 | 0.00 | 0.00 | 65 | 1018.6 |
| 20260506021835 | 71 | 177 | 7.0 | 12.0 | 0.00 | 0.00 | 0.00 | 65 | 1018.6 |
| 20260506021332 | 71 | 155 | 3.0 | 9.0 | 0.00 | 0.00 | 0.00 | 64 | 1018.4 |
| 20260506020828 | 71 | 264 | 1.0 | 6.0 | 0.00 | 0.00 | 0.00 | 63 | 1018.2 |
| 20260506020327 | 70 | 182 | 4.0 | 6.0 | 0.00 | 0.00 | 0.00 | 64 | 1018.3 |
| 20260506015824 | 69 | 195 | 0.0 | 7.0 | 0.00 | 0.00 | 0.00 | 68 | 1018.2 |
| 20260506015321 | 69 | 90 | 0.0 | 0.0 | 0.00 | 0.00 | 0.00 | 68 | 1018.2 |
| 20260506014818 | 69 | 90 | 0.0 | 0.0 | 0.00 | 0.00 | 0.00 | 66 | 1018.3 |
| 20260506014315 | 70 | 99 | 0.0 | 0.0 | 0.00 | 0.00 | 0.00 | 64 | 1018.4 |
| 20260506013812 | 70 | 188 | 0.0 | 0.0 | 0.00 | 0.00 | 0.00 | 62 | 1018.0 |
| 20260506013309 | 70 | 188 | 0.0 | 0.0 | 0.00 | 0.00 | 0.00 | 60 | 1018.0 |
| 20260506012805 | 71 | 188 | 0.0 | 0.0 | 0.00 | 0.00 | 0.00 | 60 | 1018.2 |
| 20260506012307 | 71 | 188 | 0.0 | 0.0 | 0.00 | 0.00 | 0.00 | 58 | 1018.2 |
| 20260506011759 | 72 | 188 | 0.0 | 0.0 | 0.00 | 0.00 | 0.00 | 56 | 1018.5 |
| 20260506011256 | 72 | 188 | 0.0 | 0.0 | 0.00 | 0.00 | 0.00 | 56 | 1018.3 |
| 20260506010754 | 73 | 188 | 0.0 | 0.0 | 0.00 | 0.00 | 0.00 | 54 | 1018.2 |
| 20260506010251 | 74 | 188 | 0.0 | 0.0 | 0.00 | 0.00 | 0.00 | 53 | 1018.1 |
| 20260506005748 | 74 | 188 | 0.0 | 0.0 | 0.00 | 0.00 | 0.00 | 53 | 1017.9 |
| 20260506005245 | 74 | 188 | 0.0 | 0.0 | 0.00 | 0.00 | 0.00 | 52 | 1018.1 |
| 20260506004741 | 75 | 188 | 0.0 | 0.0 | 0.00 | 0.00 | 0.00 | 51 | 1018.0 |
| 20260506004239 | 75 | 195 | 0.0 | 0.0 | 0.00 | 0.00 | 0.00 | 51 | 1017.8 |
| 20260506003734 | 75 | 254 | 0.0 | 0.0 | 0.00 | 0.00 | 0.00 | 50 | 1017.9 |
| 20260506003231 | 75 | 180 | 0.0 | 0.0 | 0.00 | 0.00 | 0.00 | 50 | 1017.6 |
| 20260506002727 | 76 | 249 | 0.0 | 2.0 | 0.00 | 0.00 | 0.00 | 49 | 1017.7 |
| 20260506002223 | 77 | 233 | 2.0 | 4.0 | 0.00 | 0.00 | 0.00 | 49 | 1017.3 |
| 20260506001719 | 77 | 187 | 1.0 | 2.0 | 0.00 | 0.00 | 0.00 | 48 | 1017.4 |
| 20260506001217 | 77 | 270 | 1.0 | 3.0 | 0.00 | 0.00 | 0.00 | 48 | 1017.2 |
| 20260506000714 | 77 | 195 | 2.0 | 4.0 | 0.00 | 0.00 | 0.00 | 48 | 1017.1 |
| 20260506000212 | 78 | 221 | 0.0 | 3.0 | 0.00 | 0.00 | 0.00 | 47 | 1017.2 |
| 20260505235709 | 78 | 203 | 3.0 | 5.0 | 0.00 | 0.00 | 0.00 | 46 | 1017.2 |
| 20260505235206 | 78 | 195 | 0.0 | 2.0 | 0.00 | 0.00 | 0.00 | 46 | 1017.2 |
| 20260505234703 | 78 | 215 | 6.0 | 6.0 | 0.00 | 0.00 | 0.00 | 46 | 1017.3 |
| 20260505234200 | 79 | 235 | 3.0 | 6.0 | 0.00 | 0.00 | 0.00 | 45 | 1017.4 |
| 20260505233656 | 79 | 352 | 2.0 | 6.0 | 0.00 | 0.00 | 0.00 | 45 | 1017.3 |
| 20260505233154 | 80 | 221 | 7.0 | 9.0 | 0.00 | 0.00 | 0.00 | 44 | 1017.2 |
| 20260505232651 | 81 | 17 | 0.0 | 5.0 | 0.00 | 0.00 | 0.00 | 43 | 1017.2 |
| 20260505232149 | 81 | 200 | 5.0 | 8.0 | 0.00 | 0.00 | 0.00 | 43 | 1017.4 |
| 20260505231645 | 81 | 209 | 9.0 | 10.0 | 0.00 | 0.00 | 0.00 | 43 | 1017.0 |
| 20260505231145 | 82 | 186 | 3.0 | 9.0 | 0.00 | 0.00 | 0.00 | 43 | 1017.3 |
| 20260505230642 | 82 | 199 | 7.0 | 7.0 | 0.00 | 0.00 | 0.00 | 42 | 1017.4 |
| 20260505230139 | 82 | 235 | 0.0 | 11.0 | 0.00 | 0.00 | 0.00 | 43 | 1017.6 |
| 20260505225635 | 82 | 221 | 6.0 | 9.0 | 0.00 | 0.00 | 0.00 | 42 | 1017.7 |
| 20260505225131 | 82 | 239 | 5.0 | 10.0 | 0.00 | 0.00 | 0.00 | 41 | 1017.7 |
| 20260505224628 | 82 | 230 | 4.0 | 5.0 | 0.00 | 0.00 | 0.00 | 42 | 1017.8 |
| 20260505224125 | 81 | 228 | 2.0 | 6.0 | 0.00 | 0.00 | 0.00 | 42 | 1017.6 |
| 20260505223622 | 81 | 229 | 3.0 | 8.0 | 0.00 | 0.00 | 0.00 | 43 | 1017.5 |
| 20260505223119 | 82 | 230 | 4.0 | 9.0 | 0.00 | 0.00 | 0.00 | 41 | 1017.5 |
| 20260505222615 | 83 | 204 | 4.0 | 5.0 | 0.00 | 0.00 | 0.00 | 42 | 1017.6 |
| 20260505222111 | 83 | 221 | 2.0 | 8.0 | 0.00 | 0.00 | 0.00 | 42 | 1017.6 |
| 20260505221608 | 82 | 161 | 3.0 | 8.0 | 0.00 | 0.00 | 0.00 | 42 | 1017.6 |
| 20260505221104 | 82 | 270 | 3.0 | 7.0 | 0.00 | 0.00 | 0.00 | 41 | 1017.6 |
| 20260505220602 | 83 | 234 | 4.0 | 7.0 | 0.00 | 0.00 | 0.00 | 40 | 1017.6 |
| 20260505220100 | 82 | 191 | 6.0 | 13.0 | 0.00 | 0.00 | 0.00 | 40 | 1017.6 |
| 20260505215558 | 83 | 225 | 3.0 | 8.0 | 0.00 | 0.00 | 0.00 | 41 | 1017.7 |
| 20260505215055 | 81 | 246 | 4.0 | 8.0 | 0.00 | 0.00 | 0.00 | 42 | 1017.6 |
| 20260505214554 | 81 | 222 | 3.0 | 5.0 | 0.00 | 0.00 | 0.00 | 43 | 1018.1 |
| 20260505214050 | 82 | 205 | 4.0 | 10.0 | 0.00 | 0.00 | 0.00 | 42 | 1017.9 |
| 20260505213548 | 82 | 246 | 4.0 | 7.0 | 0.00 | 0.00 | 0.00 | 42 | 1017.7 |
| 20260505213044 | 80 | 247 | 5.0 | 8.0 | 0.00 | 0.00 | 0.00 | 43 | 1017.6 |
| 20260505212540 | 80 | 182 | 7.0 | 10.0 | 0.00 | 0.00 | 0.00 | 42 | 1017.8 |
| 20260505212038 | 81 | 197 | 3.0 | 9.0 | 0.00 | 0.00 | 0.00 | 42 | 1017.8 |
| 20260505211535 | 82 | 253 | 5.0 | 12.0 | 0.00 | 0.00 | 0.00 | 41 | 1017.6 |
| 20260505211031 | 82 | 230 | 10.0 | 11.0 | 0.00 | 0.00 | 0.00 | 40 | 1017.7 |
| 20260505210528 | 82 | 232 | 2.0 | 8.0 | 0.00 | 0.00 | 0.00 | 42 | 1017.7 |
| 20260505210025 | 81 | 204 | 2.0 | 4.0 | 0.00 | 0.00 | 0.00 | 42 | 1018.0 |
| 20260505205523 | 82 | 210 | 4.0 | 9.0 | 0.00 | 0.00 | 0.00 | 41 | 1018.1 |
| 20260505205020 | 82 | 195 | 6.0 | 12.0 | 0.00 | 0.00 | 0.00 | 39 | 1017.8 |
| 20260505204518 | 84 | 246 | 6.0 | 11.0 | 0.00 | 0.00 | 0.00 | 39 | 1017.9 |
| 20260505204015 | 85 | 208 | 6.0 | 8.0 | 0.00 | 0.00 | 0.00 | 38 | 1017.9 |
| 20260505203511 | 81 | 252 | 5.0 | 13.0 | 0.00 | 0.00 | 0.00 | 40 | 1018.1 |
| 20260505203008 | 81 | 225 | 3.0 | 9.0 | 0.00 | 0.00 | 0.00 | 41 | 1018.2 |
| 20260505202504 | 82 | 194 | 10.0 | 10.0 | 0.00 | 0.00 | 0.00 | 40 | 1018.1 |
| 20260505202000 | 82 | 201 | 6.0 | 8.0 | 0.00 | 0.00 | 0.00 | 40 | 1018.0 |
| 20260505201457 | 82 | 237 | 3.0 | 10.0 | 0.00 | 0.00 | 0.00 | 39 | 1018.2 |
| 20260505200955 | 83 | 292 | 11.0 | 14.0 | 0.00 | 0.00 | 0.00 | 39 | 1018.3 |
| 20260505200453 | 83 | 259 | 5.0 | 9.0 | 0.00 | 0.00 | 0.00 | 37 | 1018.3 |
| 20260505195948 | 82 | 265 | 2.0 | 13.0 | 0.00 | 0.00 | 0.00 | 40 | 1018.3 |
| 20260505195446 | 84 | 244 | 3.0 | 7.0 | 0.00 | 0.00 | 0.00 | 41 | 1018.6 |
| 20260505194943 | 84 | 212 | 3.0 | 7.0 | 0.00 | 0.00 | 0.00 | 38 | 1018.8 |
| 20260505194440 | 83 | 242 | 11.0 | 15.0 | 0.00 | 0.00 | 0.00 | 40 | 1018.8 |
| 20260505193940 | 83 | 199 | 5.0 | 10.0 | 0.00 | 0.00 | 0.00 | 40 | 1018.9 |
| 20260505193438 | 82 | 252 | 3.0 | 7.0 | 0.00 | 0.00 | 0.00 | 38 | 1018.8 |
| 20260505192935 | 83 | 212 | 3.0 | 10.0 | 0.00 | 0.00 | 0.00 | 39 | 1019.1 |
| 20260505192434 | 83 | 230 | 6.0 | 13.0 | 0.00 | 0.00 | 0.00 | 38 | 1019.1 |
| 20260505191931 | 84 | 220 | 8.0 | 12.0 | 0.00 | 0.00 | 0.00 | 39 | 1019.0 |
| 20260505191430 | 83 | 161 | 2.0 | 6.0 | 0.00 | 0.00 | 0.00 | 42 | 1019.1 |
| 20260505190926 | 82 | 231 | 2.0 | 7.0 | 0.00 | 0.00 | 0.00 | 41 | 1019.4 |
| 20260505190421 | 82 | 215 | 9.0 | 11.0 | 0.00 | 0.00 | 0.00 | 40 | 1019.2 |
| 20260505185917 | 83 | 220 | 9.0 | 9.0 | 0.00 | 0.00 | 0.00 | 39 | 1019.4 |
| 20260505185414 | 83 | 249 | 4.0 | 10.0 | 0.00 | 0.00 | 0.00 | 40 | 1019.6 |
| 20260505184910 | 82 | 195 | 3.0 | 14.0 | 0.00 | 0.00 | 0.00 | 41 | 1019.7 |
| 20260505184407 | 82 | 242 | 6.0 | 11.0 | 0.00 | 0.00 | 0.00 | 41 | 1019.7 |
| 20260505183904 | 82 | 193 | 6.0 | 12.0 | 0.00 | 0.00 | 0.00 | 39 | 1019.9 |
| 20260505183401 | 83 | 170 | 3.0 | 5.0 | 0.00 | 0.00 | 0.00 | 41 | 1020.1 |
| 20260505182858 | 82 | 63 | 0.0 | 9.0 | 0.00 | 0.00 | 0.00 | 45 | 1019.9 |
| 20260505182355 | 83 | 194 | 3.0 | 7.0 | 0.00 | 0.00 | 0.00 | 42 | 1020.0 |
| 20260505181851 | 80 | 147 | 2.0 | 6.0 | 0.00 | 0.00 | 0.00 | 43 | 1020.1 |
| 20260505181348 | 82 | 206 | 3.0 | 11.0 | 0.00 | 0.00 | 0.00 | 40 | 1020.3 |
| 20260505180845 | 82 | 215 | 4.0 | 12.0 | 0.00 | 0.00 | 0.00 | 43 | 1020.0 |
| 20260505180341 | 81 | 227 | 6.0 | 14.0 | 0.00 | 0.00 | 0.00 | 42 | 1020.4 |
| 20260505175838 | 81 | 259 | 4.0 | 8.0 | 0.00 | 0.00 | 0.00 | 41 | 1020.2 |
| 20260505175334 | 82 | 211 | 4.0 | 8.0 | 0.00 | 0.00 | 0.00 | 45 | 1020.3 |
| 20260505174831 | 80 | 227 | 6.0 | 14.0 | 0.00 | 0.00 | 0.00 | 45 | 1020.6 |
| 20260505174329 | 81 | 205 | 5.0 | 12.0 | 0.00 | 0.00 | 0.00 | 43 | 1020.6 |
| 20260505173824 | 80 | 198 | 7.0 | 16.0 | 0.00 | 0.00 | 0.00 | 44 | 1020.5 |
| 20260505173321 | 81 | 187 | 8.0 | 10.0 | 0.00 | 0.00 | 0.00 | 42 | 1020.4 |
| 20260505172818 | 81 | 215 | 4.0 | 10.0 | 0.00 | 0.00 | 0.00 | 43 | 1020.4 |
| 20260505172316 | 81 | 120 | 3.0 | 11.0 | 0.00 | 0.00 | 0.00 | 43 | 1020.5 |
| 20260505171809 | 82 | 209 | 6.0 | 9.0 | 0.00 | 0.00 | 0.00 | 45 | 1020.5 |
| 20260505171307 | 80 | 270 | 0.0 | 9.0 | 0.00 | 0.00 | 0.00 | 45 | 1020.5 |
| 20260505170803 | 79 | 239 | 10.0 | 12.0 | 0.00 | 0.00 | 0.00 | 48 | 1020.6 |
| 20260505170300 | 79 | 134 | 5.0 | 9.0 | 0.00 | 0.00 | 0.00 | 48 | 1020.9 |
| 20260505165755 | 80 | 228 | 7.0 | 11.0 | 0.00 | 0.00 | 0.00 | 46 | 1020.5 |
| 20260505165252 | 80 | 220 | 4.0 | 7.0 | 0.00 | 0.00 | 0.00 | 46 | 1020.8 |